Search your local weather  

 

Hazardous Weather Conditions

No active alerts for NEW YORK, NEW YORK

Current Conditions: NEW YORK, NEW YORK

Fair


64.0 F

Last Updated on Sep 22 2020, 9:51 pm EDT
Humidity: 35%
Wind Speed: 4.6 mph
Barometer 29.92 in
Dewpoint: 36.0 F
Visibility: 10.00 mi
Precip: --
Heat Index: NA
Wind Chill: NA
Current conditions at:

New York City, Central Park, NY (KNYC)

Lat: 40.78333 Lon: -73.96667

Local Radar Image active severe weather and emergency alerts image image weather storm and storm spotter reports image weather observation monitoring service image
Local
Radar
Active
Alerts
Storm Reports Weather
Monitoring

5 Day Forecast for NEW YORK, NEW YORK (10001)

Tuesday
Night
Clear

Low 57 °F
Wednesday

Sunny

High 80 °F
Wednesday
Night
Mostly Clear

Low 62 °F
Thursday

Partly Sunny

High 79 °F
Thursday
Night
Partly Cloudy

Low 62 °F
Friday

Partly Sunny

High 80 °F
Friday
Night
Mostly Clear

Low 62 °F
Saturday

Partly Sunny

High 77 °F
Saturday
Night
Slight Chance of Rain
Low 64 °F

Sign-up For Email & Text Message Weather Alert Notification Services



Advertise Here

Observation History for NEW YORK, NEW YORK


Time Wind
(mph)
Vis
(mi)
Weather Precip (in) Temperature (F) Relative
Humidity
Wind
Chill
(F)
Heat
Index
(F)
Pressure
Air Dwpt altimeter
(in)
sea level
(mb)
9:51 pm EDT 4.6 10.00 Fair -- 64.0 36.0 35% NA NA 29.92 1012.2
8:51 pm EDT 10.00 Fair -- 66.0 37.0 34% NA NA 29.93 1012.4
7:51 pm EDT N 0.0 10.00 Fair -- 66.0 37.0 34% NA NA 29.92 1012.3
6:51 pm EDT 6.9 10.00 Fair -- 68.0 35.1 30% NA NA 29.92 1012.2
5:51 pm EDT 4.6 10.00 Fair -- 71.0 35.1 27% NA NA 29.92 1012.2
4:51 pm EDT 5.8 10.00 Fair -- 71.0 37.9 30% NA NA 29.94 1012.9
3:51 pm EDT 5.8 G 18.4 10.00 Fair -- 71.0 34.0 26% NA NA 29.96 1013.6
2:51 pm EDT 4.6 10.00 Fair -- 70.0 32.0 25% NA NA 30.01 1015.3
1:51 pm EDT 3.5 10.00 Fair -- 69.0 32.0 25% NA NA 30.04 1016.4
12:51 pm EDT N 6.9 10.00 Fair -- 67.0 35.1 31% NA NA 30.08 1017.7
11:51 am EDT 6.9 10.00 Fair -- 65.0 36.0 34% NA NA 30.13 1019.3
9:51 am EDT 3.5 10.00 Fair -- 57.0 36.0 45% NA NA 30.21 1022.1
8:51 am EDT 3.5 10.00 Fair -- 53.0 37.9 57% NA NA 30.23 1022.7
7:51 am EDT N 0.0 10.00 Fair -- 50.0 37.9 63% NA NA 30.24 1023.2
6:51 am EDT N 0.0 10.00 Fair -- 50.0 39.0 66% NA NA 30.25 1023.6
5:51 am EDT N 0.0 10.00 Fair -- 49.0 41.0 74% NA NA 30.27 1024.1
4:51 am EDT W 3.5 10.00 Fair -- 49.0 42.1 77% NA NA 30.28 1024.5
3:51 am EDT W 3.5 10.00 Fair -- 51.0 41.0 69% NA NA 30.29 1024.9
2:51 am EDT NW 3.5 10.00 Fair -- 52.0 39.0 61% NA NA 30.32 1025.9
1:51 am EDT N 0.0 10.00 Fair -- 53.0 36.0 52% NA NA 30.35 1026.7
12:51 am EDT 4.6 10.00 Fair -- 55.0 34.0 45% 54 NA 30.36 1027.3
11:51 pm EDT 3.5 10.00 Fair -- 55.0 36.0 49% NA NA 30.39 1028.0

Regional Weather Observation

New York, La Guardia Airport, NY (KLGA)

Mostly Cloudy
66.0 F

Newark, Newark International Airport, NJ (KEWR)

Partly Cloudy
63.0 F

New York, Kennedy International Airport, NY (KJFK)

Mostly Cloudy
65.0 F

Teterboro, Teterboro Airport, NJ (KTEB)

Fair
63.0 F

Caldwell, Essex County Airport, NJ (KCDW)

Fair
63.0 F

Morristown Municipal, NJ (KMMU)

Clear
66.0 F

Advertise Here


Advertise Here